Temperature
17 17 18 17 17 17 17 17 17 17 17 17 17 17 17 17 17 17 17 17 17 17 17 17 17 17 17 17 18 18 18 18 18 18 18 18 18 18 18 18 18 17 18
17 17 17 17 17 17 17 17 17 17 17 17 17 17 17 17 17 17 17 17 17 17 17 17 17 17 17 17 18 18 18 18 18 18 18 17 18 18 17 17 17 17 18
17 17 17 17 17 17 17 17 17 17 17 17 17 17 17 17 17 17 17 17 17 17 17 17 17 17 17 17 17 17 17 17 17 17 17 17 17 17 17 17 17 18 18
17 17 17 17 17 17 17 17 17 17 17 17 17 17 17 17 17 17 17 17 17 17 17 17 17 17 17 17 17 17 17 17 17 17 17 17 17 17 17 17 17 17 17
17 16 16 17 17 17 17 17 17 16 16 17 17 17 17 17 17 16 17 17 16 16 17 17 17 17 17 17 17 17 17 17 17 17 17 17 17 17 17 17 17 17 17
16 16 16 17 17 17 17 17 16 16 16 17 16 16 16 16 16 16 16 16 16 16 16 16 17 17 17 17 17 17 17 17 16 16 16 16 16 17 17 17 17 17 17
16 16 16 17 17 17 17 16 16 16 16 16 16 16 16 16 16 16 16 16 16 16 16 16 16 16 17 17 17 17 17 17 16 16 16 16 16 16 16 17 16 17 17
16 16 16 17 17 17 17 16 16 16 16 16 16 16 16 16 16 16 16 16 16 16 16 16 16 16 16 16 17 17 17 16 16 16 16 16 16 16 16 16 16 16 16
16 16 16 16 16 16 16 16 16 16 16 16 16 16 16 16 16 16 16 16 16 16 16 16 16 16 16 16 16 16 16 16 16 16 16 16 16 16 16 16 16 16 16
16 16 16 16 16 16 16 16 16 16 16 16 16 16 16 16 16 16 16 16 16 16 16 16 16 16 16 16 16 16 16 15 15 15 15 15 16 16 16 16 16 16 16
16 16 16 16 16 16 16 16 16 16 16 16 16 16 16 15 15 15 15 15 15 15 15 15 15 16 16 16 16 16 15 15 15 15 15 15 15 15 15 16 16 16 16
17 16 16 16 16 16 16 16 16 16 16 16 15 15 15 15 15 15 15 15 15 15 15 15 15 15 15 15 15 15 15 15 15 15 15 15 15 15 15 15 15 15 15
17 16 16 16 16 16 16 16 16 16 16 15 15 15 15 15 15 15 15 15 15 15 15 15 15 15 15 15 15 15 15 15 15 15 15 15 15 15 15 15 15 15 15
17 17 16 16 16 16 16 16 16 16 16 15 15 15 15 15 15 15 15 15 15 15 15 15 15 15 15 15 15 15 15 15 15 15 15 15 15 15 15 15 15 15 15
17 16 16 16 16 16 16 16 16 16 16 15 15 15 15 15 15 15 15 15 15 15 15 15 15 15 15 15 15 15 15 15 14 14 15 15 15 15 15 15 15 15 15
17 16 16 16 16 16 16 16 16 16 15 15 15 15 15 15 15 15 15 15 15 14 15 15 15 14 14 14 14 14 14 14 14 14 14 15 15 15 15 15 15 14 14
17 17 16 16 16 16 16 16 15 15 15 15 15 15 15 15 15 15 15 15 14 14 15 14 14 14 14 14 14 14 14 14 14 14 14 14 14 14 14 14 14 14 14
17 17 16 16 16 16 16 15 15 15 15 15 15 15 15 15 15 15 14 15 14 14 14 14 14 14 14 14 14 14 14 14 14 14 14 14 14 14 14 14 14 14 14
16 16 16 16 16 16 15 15 15 15 15 15 15 15 15 15 15 14 14 14 14 14 14 14 14 14 14 14 14 14 14 14 14 14 14 14 14 14 14 14 14 14 14
16 16 16 16 16 16 15 15 15 15 15 15 15 15 15 14 14 14 14 14 14 14 14 14 14 14 14 14 14 14 14 14 14 14 14 14 14 14 14 14 13 13 14
16 16 16 16 16 15 15 15 15 15 15 15 15 15 14 14 14 14 14 14 14 14 14 14 14 14 14 14 14 14 14 14 14 14 14 14 14 13 13 13 13 13 13
16 16 16 16 16 15 15 15 15 15 15 15 15 14 14 14 14 14 14 14 14 14 14 14 14 14 14 14 14 14 15 14 14 14 14 14 14 13 13 13 13 13 13
16 16 16 16 15 15 15 15 15 15 15 14 14 14 14 14 14 14 14 14 14 14 14 14 13 13 14 14 14 14 15 15 14 14 13 13 13 13 13 13 13 13 13
16 16 15 15 15 15 15 15 15 15 14 14 14 14 14 14 14 14 14 14 14 14 14 13 13 13 13 13 13 14 14 14 14 14 13 13 13 13 13 13 13 13 13
16 16 15 15 15 15 15 15 15 15 14 14 14 14 14 14 14 14 14 14 14 14 13 13 13 13 13 13 13 13 13 13 14 14 14 13 13 13 13 13 13 13 12
15 15 15 15 15 15 15 15 15 14 14 14 14 14 14 14 14 14 13 13 13 13 13 13 13 13 13 13 13 13 13 13 13 14 14 13 13 13 13 13 13 12 12
Wind_Speed
2 3 4 2 4 5 5 5 5 6 7 7 8 8 9 9 9 9 9 9 9 9 8 8 9 9 9 9 9 9 9 9 9 9 9 9 8 8 7 6 5 6 8
3 3 4 3 4 5 5 5 5 6 7 7 7 8 9 9 9 9 9 9 9 8 9 8 9 10 10 10 10 9 9 9 9 8 8 8 9 8 8 7 5 6 7
4 4 5 5 5 5 5 4 4 5 7 7 8 8 8 8 9 9 9 10 9 9 9 9 9 10 10 10 10 10 10 9 8 6 5 7 8 8 7 7 7 7 6
4 5 6 6 6 6 6 6 6 7 8 8 8 8 9 9 9 9 10 10 11 10 10 10 10 10 10 10 10 10 10 9 7 3 5 7 7 9 7 7 7 7 6
5 5 7 6 7 7 7 8 8 9 9 8 8 9 9 9 10 10 10 10 11 10 10 11 12 11 10 10 10 10 10 8 6 5 7 7 8 9 8 7 7 6 6
5 6 8 6 7 8 8 10 10 10 9 9 9 9 9 10 10 10 10 11 11 11 11 11 12 12 12 12 12 11 9 7 5 7 7 7 8 9 8 8 7 6 6
6 6 8 7 8 8 9 9 10 10 10 10 9 10 10 10 10 10 10 10 11 11 11 11 12 12 12 12 12 12 10 7 7 7 7 7 8 8 8 8 8 8 7
6 6 7 8 8 8 9 9 10 10 10 10 10 10 10 9 10 10 11 11 11 11 11 12 12 12 12 12 12 11 9 6 7 8 8 8 9 8 8 8 8 8 9
6 6 6 7 8 8 8 9 9 9 10 10 10 10 10 10 10 11 11 11 12 12 12 12 13 12 12 12 12 11 10 7 7 7 8 8 9 8 8 8 9 9 9
6 5 5 6 6 7 8 8 8 8 9 9 10 10 9 9 10 9 10 11 11 12 12 12 12 12 11 11 11 10 7 5 9 8 8 10 10 9 9 9 9 9 9
5 5 5 5 6 6 6 7 6 8 8 7 9 8 6 7 8 8 11 11 11 11 12 12 11 11 9 11 10 7 4 7 9 8 9 11 10 10 10 10 10 10 10
5 5 4 4 4 5 5 5 5 6 6 5 6 7 6 6 7 8 11 9 10 11 12 11 9 7 5 7 8 4 7 8 8 8 11 12 11 10 10 10 11 10 10
5 4 4 4 4 3 4 4 4 4 5 5 5 6 5 6 5 6 6 7 7 6 7 7 5 6 7 7 6 7 8 8 8 9 11 12 11 12 11 11 12 11 11
4 3 3 3 3 3 4 3 3 3 4 4 4 4 4 4 4 5 4 5 5 5 5 5 5 7 7 8 8 8 9 8 8 8 11 13 12 13 12 12 13 12 11
4 4 3 2 2 3 3 2 2 3 3 4 3 3 4 3 3 4 4 4 5 5 5 5 5 6 6 7 8 8 8 8 8 8 9 12 13 13 12 12 12 12 12
4 3 3 3 2 2 2 2 2 3 3 3 3 2 3 3 3 3 4 4 4 4 4 4 5 4 5 5 6 7 7 7 7 7 7 9 11 12 12 12 11 11 12
4 3 3 3 2 2 2 1 1 2 2 2 2 2 2 3 3 3 3 3 3 4 4 3 4 4 4 5 5 6 6 6 6 6 7 6 7 10 11 11 11 11 11
3 3 3 3 3 2 2 2 2 2 2 2 2 2 2 2 2 3 2 3 3 3 3 2 2 3 3 3 4 4 4 4 5 5 5 5 6 6 8 10 10 10 10
3 3 3 3 3 2 2 2 1 2 2 2 2 2 2 2 2 3 2 2 3 2 2 2 2 2 3 3 3 3 3 3 3 3 4 4 5 4 5 7 7 8 8
3 3 3 3 3 3 3 2 2 1 1 2 1 1 1 1 2 2 2 2 2 2 2 2 2 2 2 2 2 2 2 2 2 2 2 3 3 4 4 4 4 6 7
2 2 2 3 3 3 3 2 2 2 2 2 1 1 1 2 2 2 2 2 2 2 2 2 2 2 2 2 2 2 2 2 3 2 2 2 3 3 3 3 3 2 4
3 2 2 2 2 2 2 2 2 2 2 2 2 2 2 2 2 2 3 3 3 2 2 2 2 1 1 1 1 1 1 2 2 2 2 1 2 2 2 2 3 2 2
2 2 2 2 2 2 2 2 2 2 2 3 3 2 2 2 2 2 2 3 3 3 2 2 2 2 1 1 1 2 1 0 1 2 1 1 2 1 1 2 2 3 3
1 1 2 3 2 2 3 2 3 3 3 2 2 2 3 3 3 3 3 3 3 2 3 3 3 3 3 2 1 1 2 2 2 1 2 1 1 1 1 1 1 2 2
1 1 2 2 2 2 2 2 3 3 2 2 2 2 3 3 3 3 3 3 3 2 3 3 3 3 3 3 2 1 2 2 3 2 2 2 1 0 1 0 1 1 2
1 1 1 2 2 2 2 3 3 3 3 3 3 3 3 3 2 3 3 3 3 3 3 3 3 4 3 3 3 3 3 3 2 2 3 2 1 1 0 0 0 0 1
Wind_Direction
78 78 86 84 94 96 94 86 82 83 86 87 87 87 84 80 74 71 72 75 78 77 75 76 78 76 76 81 86 86 84 86 91 95 96 97 98 98 95 93 100 100 92
94 87 93 89 97 95 91 82 84 90 90 91 90 89 86 83 78 74 73 75 76 76 75 74 75 74 75 78 83 85 85 85 89 92 99 104 96 91 89 83 70 79 87
97 96 107 92 90 86 80 76 82 94 93 92 91 88 85 81 77 74 73 75 77 77 76 74 75 76 74 74 79 85 85 83 85 94 113 103 99 91 86 81 78 82 87
99 94 92 90 87 76 69 74 87 95 93 87 88 86 84 79 73 75 76 76 78 78 74 72 74 77 77 77 79 83 84 84 83 94 94 85 90 88 81 77 78 81 79
102 95 93 91 86 77 68 76 88 93 93 91 90 89 85 80 76 73 74 75 77 77 77 75 72 73 78 78 79 81 83 85 85 79 76 78 82 81 76 73 72 78 76
105 97 96 91 88 82 75 77 86 93 93 89 91 92 87 83 78 74 74 74 76 77 76 76 76 74 77 77 71 72 80 81 86 75 72 75 79 77 73 69 68 72 73
106 102 101 90 87 86 82 79 82 84 83 84 91 95 90 84 80 76 76 75 77 78 78 79 78 77 77 75 72 70 71 66 67 73 74 74 74 74 72 70 68 69 69
109 106 106 101 90 87 86 82 80 78 78 80 88 94 89 86 83 80 77 76 76 78 79 80 80 79 74 74 75 73 65 48 72 71 72 73 70 72 72 71 68 70 71
112 111 110 112 110 104 94 86 81 80 78 78 84 87 87 85 85 84 81 80 80 80 80 81 81 81 77 74 75 73 65 43 58 67 70 68 69 73 75 74 72 71 70
115 112 107 108 109 106 105 96 87 86 83 83 86 88 90 95 95 92 90 82 83 83 84 84 83 80 77 74 72 69 64 59 61 65 66 68 68 72 73 72 73 72 70
119 117 112 110 103 98 95 102 105 101 97 104 101 99 103 97 96 98 82 83 85 86 86 84 82 83 85 82 73 67 62 64 64 61 61 63 66 68 72 69 71 73 73
128 123 118 110 104 99 97 107 101 96 100 99 100 102 94 89 85 91 95 90 93 95 94 87 88 96 89 83 84 77 65 65 64 65 62 58 63 67 69 69 71 74 75
133 126 119 114 117 112 110 103 97 96 98 94 95 101 97 94 99 97 102 110 109 109 96 99 96 76 76 73 67 66 60 57 57 62 62 58 61 66 69 70 71 73 75
136 135 132 130 128 120 110 107 107 104 101 99 98 100 102 95 91 92 92 90 96 91 88 86 75 77 75 76 72 68 66 61 60 65 64 57 58 64 69 70 70 70 75
138 134 135 131 133 125 109 114 121 110 107 105 101 99 100 103 95 93 98 96 90 90 95 90 81 75 73 69 66 64 64 65 64 68 72 65 58 59 64 69 71 68 68
139 136 136 126 120 120 126 141 127 126 131 124 120 125 115 117 112 103 99 99 94 92 89 91 89 84 77 74 69 66 64 65 65 69 72 76 70 63 63 67 71 70 70
137 138 140 132 129 126 124 127 129 141 142 137 129 123 119 115 116 116 109 110 109 110 105 93 91 87 85 84 79 73 68 62 65 69 70 69 76 76 68 63 65 69 71
146 146 144 153 149 136 142 160 153 153 151 151 144 141 130 132 130 116 119 120 120 120 117 109 103 98 97 88 80 75 74 69 62 62 69 71 69 70 77 68 61 65 69
167 164 163 161 167 161 156 153 145 144 148 153 159 159 160 149 154 142 132 131 127 131 133 126 113 108 104 96 89 79 69 68 67 70 69 67 73 75 76 89 80 67 67
184 186 186 179 184 175 176 170 148 145 141 132 138 170 151 162 158 148 150 146 138 146 139 138 121 118 109 113 100 83 77 79 74 63 56 64 63 69 70 74 87 89 78
183 191 193 195 184 181 183 183 183 172 156 141 134 152 172 179 170 157 167 161 160 155 158 157 140 135 137 142 137 116 109 94 78 78 63 60 75 67 69 69 65 71 98
180 183 191 198 188 187 191 192 196 174 157 143 145 140 158 175 171 172 180 171 160 156 173 172 166 187 157 206 246 215 172 152 112 89 86 72 72 77 59 59 67 67 59
174 186 193 192 184 185 187 184 179 165 170 166 165 162 158 166 171 176 180 181 176 178 178 190 197 212 216 211 284 295 278 284 136 138 97 95 75 64 58 58 58 67 72
191 195 205 194 180 175 184 192 198 194 189 179 164 161 168 173 177 181 184 190 188 193 191 199 206 219 226 227 222 296 308 315 263 178 161 129 93 53 33 53 58 70 75
177 185 203 188 173 170 182 178 195 197 190 165 158 174 187 180 183 185 198 199 196 198 202 208 218 223 227 240 244 246 256 253 260 253 221 187 161 93 39 7 49 82 87
134 155 180 184 177 177 178 184 191 197 193 182 179 187 200 187 187 188 199 201 202 202 206 207 215 219 232 232 242 244 249 255 247 246 251 226 214 202 146 321 257 130 129
Height
1525 1525 1524 1524 1523 1523 1523 1522 1522 1521 1521 1521 1521 1521 1520 1520 1520 1519 1518 1518 1518 1517 1517 1517 1517 1516 1516 1516 1516 1515 1515 1515 1516 1516 1516 1517 1517 1517 1518 1518 1519 1519 1518
1526 1525 1525 1524 1524 1523 1523 1522 1522 1521 1521 1521 1521 1521 1521 1521 1521 1520 1520 1519 1519 1519 1518 1518 1518 1518 1518 1517 1517 1517 1517 1517 1517 1518 1518 1518 1519 1519 1519 1519 1519 1519 1519
1526 1526 1525 1525 1524 1524 1522 1520 1519 1520 1521 1522 1522 1522 1522 1522 1522 1522 1521 1521 1520 1520 1520 1519 1519 1519 1519 1518 1518 1518 1518 1518 1519 1519 1520 1520 1520 1520 1520 1520 1520 1520 1520
1527 1527 1527 1526 1525 1523 1521 1517 1516 1517 1520 1521 1522 1523 1523 1523 1523 1523 1523 1522 1522 1522 1521 1520 1520 1520 1520 1520 1519 1519 1519 1520 1520 1521 1522 1522 1521 1521 1521 1521 1521 1520 1520
1528 1528 1527 1526 1526 1524 1521 1516 1515 1516 1519 1521 1522 1523 1524 1524 1524 1524 1524 1524 1524 1523 1523 1522 1522 1522 1521 1521 1521 1521 1521 1521 1521 1522 1522 1522 1522 1522 1522 1521 1521 1521 1520
1529 1529 1528 1527 1527 1525 1523 1520 1518 1519 1520 1520 1520 1523 1525 1525 1526 1526 1526 1526 1525 1525 1524 1524 1523 1523 1523 1523 1522 1522 1522 1522 1523 1523 1523 1523 1523 1522 1522 1522 1521 1521 1520
1530 1530 1529 1529 1528 1527 1526 1524 1523 1522 1521 1520 1520 1523 1525 1527 1527 1527 1527 1527 1527 1527 1526 1526 1525 1525 1525 1524 1524 1523 1523 1524 1524 1524 1524 1524 1524 1523 1523 1523 1522 1521 1520
1531 1531 1531 1530 1530 1529 1528 1527 1527 1526 1524 1523 1523 1525 1527 1528 1528 1529 1529 1529 1529 1528 1528 1527 1527 1527 1526 1526 1526 1526 1525 1525 1526 1526 1526 1526 1525 1524 1524 1523 1522 1522 1521
1532 1532 1533 1532 1532 1531 1531 1530 1529 1529 1528 1527 1527 1528 1529 1530 1530 1530 1530 1531 1531 1530 1530 1529 1529 1528 1528 1528 1528 1527 1527 1527 1528 1527 1527 1527 1526 1525 1524 1524 1523 1522 1521
1533 1534 1534 1534 1534 1534 1533 1532 1532 1531 1531 1531 1531 1531 1531 1532 1532 1532 1532 1532 1532 1532 1532 1531 1531 1530 1530 1530 1530 1529 1529 1529 1529 1529 1529 1528 1527 1526 1525 1525 1524 1523 1522
1534 1535 1535 1535 1535 1535 1535 1534 1534 1534 1533 1533 1533 1533 1534 1535 1535 1535 1534 1534 1534 1534 1533 1533 1533 1532 1532 1532 1531 1531 1531 1532 1531 1531 1530 1529 1528 1528 1527 1526 1525 1525 1524
1535 1536 1536 1536 1536 1536 1536 1536 1536 1536 1536 1536 1536 1536 1536 1536 1536 1536 1536 1536 1536 1536 1535 1535 1535 1535 1535 1534 1534 1533 1534 1533 1533 1533 1532 1531 1530 1529 1529 1528 1527 1526 1525
1536 1536 1537 1537 1537 1537 1537 1538 1537 1537 1537 1537 1538 1538 1538 1538 1538 1538 1538 1538 1538 1538 1538 1537 1537 1537 1537 1536 1536 1536 1536 1535 1535 1534 1533 1532 1532 1531 1530 1529 1529 1527 1527
1536 1536 1537 1537 1538 1538 1538 1538 1538 1538 1538 1539 1539 1539 1539 1539 1539 1540 1540 1540 1540 1540 1539 1539 1539 1539 1539 1539 1539 1538 1537 1537 1536 1536 1535 1534 1533 1532 1532 1531 1530 1529 1528
1536 1537 1537 1538 1538 1538 1538 1538 1539 1539 1539 1539 1539 1540 1540 1540 1541 1541 1541 1541 1541 1541 1541 1541 1541 1541 1541 1540 1540 1540 1539 1539 1538 1538 1537 1536 1535 1534 1534 1533 1532 1531 1530
1536 1537 1537 1538 1538 1538 1539 1539 1539 1539 1539 1540 1540 1540 1541 1541 1541 1542 1542 1542 1542 1542 1542 1542 1542 1542 1542 1541 1541 1541 1541 1540 1540 1540 1539 1538 1537 1536 1536 1535 1534 1533 1532
1536 1537 1537 1538 1538 1538 1539 1539 1539 1539 1540 1540 1541 1541 1542 1542 1542 1542 1542 1543 1543 1543 1543 1543 1544 1543 1543 1543 1543 1542 1542 1542 1542 1541 1541 1540 1540 1539 1538 1537 1536 1535 1534
1536 1537 1537 1537 1538 1538 1539 1539 1539 1540 1540 1540 1540 1541 1542 1542 1542 1542 1543 1543 1543 1543 1544 1544 1544 1544 1544 1544 1544 1544 1543 1543 1543 1543 1542 1542 1541 1540 1539 1538 1538 1537 1536
1536 1536 1537 1537 1537 1538 1538 1538 1538 1539 1539 1540 1540 1541 1541 1542 1542 1543 1543 1543 1544 1544 1544 1544 1544 1545 1545 1544 1544 1544 1544 1544 1543 1544 1544 1543 1543 1542 1541 1540 1539 1538 1537
1535 1536 1536 1536 1537 1537 1537 1538 1538 1538 1538 1539 1539 1540 1541 1541 1542 1542 1542 1543 1544 1544 1544 1544 1544 1544 1544 1544 1545 1544 1544 1544 1544 1544 1544 1544 1543 1543 1542 1541 1540 1539 1538
1534 1534 1535 1535 1536 1536 1537 1537 1537 1537 1537 1538 1538 1539 1540 1540 1541 1541 1542 1543 1543 1543 1544 1544 1544 1544 1544 1544 1545 1545 1545 1544 1544 1544 1543 1543 1543 1542 1542 1542 1541 1540 1540
1533 1533 1534 1534 1535 1535 1535 1536 1536 1536 1536 1537 1537 1538 1538 1539 1540 1541 1542 1542 1542 1542 1543 1543 1543 1544 1544 1544 1545 1545 1545 1546 1544 1544 1543 1543 1543 1542 1542 1542 1541 1540 1540
1531 1532 1532 1533 1534 1534 1534 1534 1535 1535 1535 1536 1536 1537 1537 1538 1539 1540 1541 1541 1541 1542 1542 1542 1543 1543 1543 1544 1544 1545 1544 1544 1544 1544 1543 1543 1542 1542 1542 1541 1541 1541 1540
1530 1531 1531 1532 1533 1533 1533 1533 1534 1534 1535 1535 1536 1536 1536 1537 1538 1538 1539 1540 1540 1541 1541 1542 1542 1542 1542 1543 1543 1543 1544 1543 1544 1543 1543 1543 1542 1541 1541 1541 1541 1540 1540
1529 1529 1530 1531 1531 1531 1532 1532 1532 1533 1534 1534 1534 1535 1535 1536 1536 1537 1538 1538 1539 1539 1540 1540 1540 1541 1541 1542 1542 1542 1542 1542 1542 1542 1542 1542 1542 1541 1540 1540 1540 1540 1539
1528 1528 1529 1529 1530 1530 1531 1531 1531 1532 1532 1533 1533 1534 1534 1534 1535 1535 1536 1536 1537 1538 1538 1539 1539 1539 1540 1540 1540 1540 1541 1541 1541 1541 1541 1540 1540 1540 1539 1539 1539 1538 1538